« Back
NWS Peachtree City, Ga » Text Product » GA Regional Weather Roundup


Printer-friendly Version
Current Version              Previous Versions:   1  2  3  4  5  6  7  8  9  

Regional Weather Roundup

631
ASUS42 KFFC 241803
RWRGA
WEATHER ROUNDUP FOR GEORGIA
NATIONAL WEATHER SERVICE PEACHTREE CITY GA
100 PM EST MON NOV 24 2014

NOTE: "FAIR" INDICATES FEW OR NO CLOUDS BELOW 12,000 FEET WITH NO
SIGNIFICANT WEATHER AND/OR OBSTRUCTIONS TO VISIBILITY.

* = USE WITH CAUTION. THE STATIONS MARKED WITH AN ASTERISK MAY NOT
REPORT WEATHER SUCH AS PRECIPITATION, FOG, OR THUNDER AND ARE NOT
QUALITY CONTROLLED BY NWS.

THE REMARK "TC" DENOTES TEMPERATURE READING IN DEGREES CELSIUS.

GAZ001>058-241900-
NORTH GEORGIA

CITY           SKY/WX    TMP DP  RH WIND       PRES   REMARKS
ATLANTA        MOSUNNY   73  54  51 SW16      29.80F
6HR MIN TEMP:  61; 6HR MAX TEMP:  74;

ATHENS         MOSUNNY   74  58  57 W8        29.80F
6HR MIN TEMP:  57; 6HR MAX TEMP:  74;

CHAMBLEE       MOSUNNY   73  55  53 SW12G18   29.80F
6HR MIN TEMP:  58; 6HR MAX TEMP:  73;

PEACHTREE CITY SUNNY     73  56  54 SW12G20   29.81F
6HR MIN TEMP:  62; 6HR MAX TEMP:  74;

ROME           SUNNY     68  53  58 W10G21    29.77F
6HR MIN TEMP:  57; 6HR MAX TEMP:  71;

WEST ATLANTA   SUNNY     74  54  49 SW10      29.80F
6HR MIN TEMP:  61; 6HR MAX TEMP:  74;

GAINESVILLE    MOSUNNY   70  55  59 W14       29.82S
6HR MIN TEMP:  55; 6HR MAX TEMP:  70;

CARTERSVILLE   MOSUNNY   72  53  51 MISG      29.80F
6HR MIN TEMP:  51; 6HR MAX TEMP:  72;



CITY           SKY/WX    TMP DP  RH WIND       PRES   REMARKS
DALTON*        MOSUNNY   70  54  56 S9        29.77F
LAWRENCEVILLE* MOSUNNY   72  54  53 W15G22    29.80S
MARIETTA       MOSUNNY   73  55  53 SW9       29.80F
KENNESAW*      MOSUNNY   72  52  49 W13G21    29.82S
$$

GAZ059>098-102>109-241900-
CENTRAL GEORGIA

CITY           SKY/WX    TMP DP  RH WIND       PRES   REMARKS
AUGUSTA-BUSH   CLOUDY    73  65  75 SW8       29.82F
6HR MIN TEMP:  63; 6HR MAX TEMP:  73; 6HR PCP: TRACE;

AUGUSTA-DANIEL CLOUDY    73  64  73 SW9       29.83F
6HR MIN TEMP:  65; 6HR MAX TEMP:  73; 6HR PCP: TRACE;

COLUMBUS       SUNNY     76  57  51 W12       29.80F
6HR MIN TEMP:  63; 6HR MAX TEMP:  76;

MACON          CLOUDY    76  59  55 SW8       29.82F
6HR MIN TEMP:  65; 6HR MAX TEMP:  76;

ROBINS AFB     MOSUNNY   75  64  69 SW9G17    29.82F


CITY           SKY/WX    TMP DP  RH WIND       PRES   REMARKS
LAGRANGE*      SUNNY     77  61  56 W12       29.81F
SYLVANIA*      DRIZZLE   70  69  96 S5        29.86S
MILLEDGEVILLE* SUNNY     77  61  57 S3        29.81F
$$

GAZ099>101-110>166-241900-
SOUTH GEORGIA

CITY           SKY/WX    TMP DP  RH WIND       PRES   REMARKS
SAVANNAH       RAIN      71  66  84 W16       29.89R
6HR MIN TEMP:  71; 6HR MAX TEMP:  83; 6HR PCP:  0.01;

VALDOSTA       LGT RAIN  68  67  96 VRB3      29.89S FOG
6HR MIN TEMP:  68; 6HR MAX TEMP:  75; 6HR PCP:  0.04;

ALMA           LGT RAIN  68  66  93 SW6       29.88F FOG
6HR MIN TEMP:  67; 6HR MAX TEMP:  75; 6HR PCP:  0.43;

ST SIMONS      CLOUDY    78  69  73 SW13      29.88F
6HR MIN TEMP:  65; 6HR MAX TEMP:  79;

FT STEWART     DRIZZLE   69  65  90 W8        29.87S
ALBANY         CLOUDY    75  67  76 SW8       29.86F
HUNTER AFB     LGT RAIN  78  73  84 W8G22     29.85S
MOODY AFB      LGT RAIN  68  67  95 W5        29.88F FOG
BRUNSWICK      CLOUDY    81  70  69 SW13G22   29.88F


CITY           SKY/WX    TMP DP  RH WIND       PRES   REMARKS
BAINBRIDGE*    CLOUDY    77  72  83 SW3       29.85F
MOULTRIE*      RAIN      70 N/A N/A S7        29.88F
VIDALIA*       CLOUDY    70  68  94 SW7       29.85F
WAYCROSS*      LGT RAIN  71  69  95 NW8       29.89R
DOUGLAS*       CLOUDY    70  68  94 SW6       29.89S FOG
$$



USA.gov is the U.S. government's official web portal to all federal, state and local government web resources and services.